Location: Bletchingley
(51.2333°N, 0.1000°W)
Time: 13:34:58
(UTC+00:00)

Cosmos 1892 Rocket - Pass Details

Date: 18 September 2020
Orbit: 606 x 633 km, 82.5° (Epoch: 25 October)

Event Time Altitude Azimuth Distance (km) Brightness Sun altitude
Rises 20:13:49 0° 354° (N) 2,880 7.5 -19.8°
Reaches altitude 10° 20:16:10 10° 2° (N) 1,970 6.5 -20.1°
Enters shadow 20:20:05 40° 66° (ENE) 911 4.1 -20.6°
